Location: Ecklingerode
(51.5036°N, 10.3122°E)
Time: 06:36:53
(UTC+00:00)

YAOGAN 1 - Pass Details

Date: 29 October 2020
Orbit: 618 x 620 km, 97.9° (Epoch: 01 December)

Event Time Altitude Azimuth Distance (km) Brightness Sun altitude
Rises 17:15:46 0° 147° (SSE) 2,889 5.7 -12.8°
Reaches altitude 10° 17:18:00 10° 142° (SE) 1,987 4.8 -13.1°
Maximum altitude 17:22:08 47° 69° (ENE) 832 2.8 -13.8°
Drops below altitude 10° 17:26:18 10° 356° (N) 2,001 5.2 -14.4°
Sets 17:28:33 0° 351° (N) 2,912 6.1 -14.8°
